Wind_Speed
34 33 33 35 38 41 44 47 48 46 43 41 40 39 39 39 40 42 40 38 38 37 35 33 32 31 29 26 24 23 21 20 20 20 23 26 27 27 28 31 38 48 58 58 55 60 65 62 60 61 55 53 57 53 51 51 52 57 57 56 62 62 51 48 50 43 35 35 37 41 47 45 43 47 47 46 46 43 40 36 34 35 34 34 33 23 18
34 34 34 36 39 41 45 48 48 48 46 45 42 39 39 39 39 41 42 40 40 39 36 33 31 30 29 25 22 21 20 20 19 19 22 24 26 26 27 29 31 39 56 64 58 58 63 61 57 54 48 54 67 65 58 57 55 58 63 59 60 64 59 56 58 49 38 36 37 37 44 48 46 47 48 48 44 40 38 34 32 34 32 33 35 28 22
35 35 36 37 39 42 45 48 49 48 47 47 45 43 41 39 38 40 41 41 42 41 36 32 30 29 28 24 20 19 20 20 19 20 21 21 21 24 27 29 28 30 49 68 65 58 59 57 54 49 41 49 68 73 67 64 62 62 65 62 60 66 67 64 64 58 45 40 42 41 45 51 50 46 46 48 44 36 34 35 34 35 33 33 33 28 26
37 36 37 38 40 42 45 47 48 47 47 47 45 45 45 42 41 42 41 42 43 39 33 30 29 27 26 24 19 17 19 19 19 20 21 20 18 20 24 28 29 28 41 65 72 62 58 55 51 47 40 46 64 74 71 69 70 67 64 62 62 66 71 69 64 60 49 41 40 37 37 43 48 46 44 47 46 38 32 36 37 35 34 33 30 27 29
38 37 37 39 41 44 46 46 46 46 46 46 45 45 46 45 44 44 44 44 43 36 30 29 27 26 24 21 17 16 18 19 19 19 20 20 18 16 18 22 25 27 34 57 73 69 62 58 53 47 40 44 60 69 69 71 74 71 65 63 64 66 70 71 66 61 53 44 40 38 36 38 42 43 42 45 47 44 39 39 38 35 33 31 29 28 27
38 37 37 39 42 44 47 46 44 44 44 45 44 44 45 46 45 46 46 44 40 34 30 28 26 24 22 19 17 17 17 17 18 19 19 20 17 13 14 16 20 24 27 48 68 68 66 64 55 45 40 44 55 61 66 72 74 72 68 66 69 69 69 71 69 63 57 50 42 39 40 42 42 40 39 40 44 47 47 41 35 35 35 28 28 30 27
37 36 37 39 42 45 47 46 44 43 42 43 42 42 45 46 44 45 45 41 38 35 31 27 25 23 21 19 17 16 17 17 17 18 18 18 17 15 16 17 18 22 23 38 58 60 61 66 59 46 39 42 47 50 59 69 73 73 72 70 72 73 71 72 70 64 59 55 48 42 42 44 44 39 35 36 40 45 48 42 34 35 35 29 28 33 32
36 36 37 39 42 45 46 46 44 43 42 41 41 42 44 46 44 44 42 38 36 36 32 28 25 22 20 19 18 16 16 17 17 19 18 16 15 16 19 20 18 19 20 28 47 52 54 63 64 51 40 38 38 39 49 64 71 73 74 74 75 74 71 70 70 68 65 60 52 46 43 44 44 39 35 34 36 39 42 42 37 34 35 32 31 32 33
35 36 37 40 43 45 45 45 44 45 43 41 40 41 44 46 44 42 40 36 36 36 32 28 25 21 20 20 20 18 17 17 18 19 18 16 15 16 18 21 18 16 17 21 35 44 49 60 66 58 45 37 32 30 38 55 68 70 73 76 77 75 73 70 70 71 71 66 56 47 45 47 48 44 39 36 35 35 37 40 41 37 34 32 30 30 31
34 36 39 42 44 45 45 45 44 45 44 42 40 41 43 45 43 42 41 38 37 38 34 28 24 21 20 21 22 20 18 18 19 18 17 16 15 16 18 19 16 13 15 18 26 35 44 56 65 64 54 40 31 26 29 46 62 68 70 75 77 77 76 74 74 74 73 71 64 52 47 51 52 47 42 39 38 35 32 36 42 40 34 31 32 34 34
35 37 40 43 45 45 45 45 45 44 43 41 39 40 42 43 40 41 42 40 39 40 34 27 24 22 19 20 23 21 18 17 18 18 16 14 15 16 17 17 15 13 16 19 22 26 37 51 62 67 62 48 34 28 26 37 55 64 68 72 75 78 78 76 77 76 73 72 66 52 47 53 55 50 45 41 40 37 33 34 38 38 36 32 33 37 37
35 38 42 44 45 45 45 45 45 44 42 40 38 39 41 41 38 39 42 41 39 38 34 28 26 24 21 20 22 22 19 15 16 16 15 13 14 16 16 15 15 14 14 18 19 21 28 42 54 63 67 59 45 32 26 31 46 58 66 70 73 76 77 76 76 74 71 74 69 56 53 57 56 52 49 47 46 43 42 36 29 29 34 33 31 35 40
36 40 43 44 45 45 45 45 45 44 42 39 37 38 39 39 37 38 41 41 38 37 35 30 27 26 24 22 21 21 18 14 14 15 15 14 14 14 15 14 13 13 14 16 17 18 22 32 45 55 60 62 57 42 30 29 38 49 60 68 72 74 74 74 75 72 69 73 73 69 67 63 56 52 48 48 49 44 44 42 36 35 41 42 40 41 44
38 41 43 44 45 45 45 45 45 43 41 38 36 37 38 37 36 37 38 39 37 37 37 32 27 26 25 23 22 20 16 12 13 14 13 14 13 12 14 14 11 11 12 16 16 15 15 22 35 47 49 52 58 53 38 30 32 41 53 63 68 70 70 70 72 69 65 67 73 75 72 63 59 56 45 43 50 50 48 49 48 49 51 50 50 49 44
39 41 43 44 44 45 44 44 43 42 41 37 34 35 36 35 35 35 36 36 37 37 37 34 29 26 23 22 22 19 13 11 12 12 11 12 12 10 13 14 12 10 8 12 15 14 11 12 22 37 41 41 48 55 49 39 33 34 43 55 62 65 65 66 70 68 61 60 62 61 55 52 62 64 50 45 51 55 57 56 53 53 57 56 56 56 47
40 41 43 43 43 43 42 42 42 41 40 36 34 34 34 33 33 33 33 34 35 37 37 36 31 27 23 20 20 17 13 11 12 11 9 9 9 8 10 13 11 8 5 7 13 15 13 10 14 24 34 36 40 48 53 51 43 36 35 43 53 59 61 63 67 66 60 57 53 46 39 41 52 57 54 55 58 57 60 62 57 57 61 58 55 58 57
40 41 42 42 42 41 41 40 39 39 37 35 33 32 31 31 32 32 31 32 33 34 37 37 34 30 26 19 16 15 14 10 10 9 8 8 8 7 8 9 10 8 4 5 13 18 16 13 13 16 24 32 37 42 47 51 50 44 39 37 42 52 57 60 64 63 59 59 52 39 32 34 38 41 44 54 63 62 62 64 61 61 65 62 57 57 57
40 41 41 41 41 40 39 38 37 37 36 33 31 31 30 29 30 30 30 31 31 33 35 36 35 33 30 23 16 14 12 9 8 7 7 7 7 7 7 8 8 7 4 4 13 19 18 16 15 15 19 26 32 36 41 45 45 45 48 45 41 45 52 59 63 60 57 59 53 38 29 34 36 35 38 50 63 64 63 67 66 65 67 66 64 61 55
40 41 41 40 39 39 39 38 36 36 35 33 30 29 28 27 28 29 30 30 31 32 33 35 35 33 32 27 20 15 12 9 7 6 5 4 5 5 6 7 7 5 3 3 13 19 19 18 19 18 19 23 28 29 32 39 41 42 51 56 50 45 47 54 62 61 56 58 57 43 31 36 42 39 40 52 63 63 64 70 71 69 69 67 65 64 59
40 41 40 39 39 39 38 37 35 34 33 32 29 27 26 26 26 27 29 31 32 32 33 33 33 33 32 29 24 18 14 10 8 5 4 3 4 3 3 5 5 4 1 5 13 17 18 19 21 22 21 21 25 26 26 30 34 36 45 55 57 53 49 49 56 61 58 58 60 50 36 35 43 44 40 44 54 60 65 69 70 70 71 69 66 63 58
40 40 39 39 39 39 38 35 33 31 30 29 27 25 24 24 25 26 28 30 31 31 32 33 32 32 31 29 25 22 17 12 10 8 5 4 4 3 4 3 3 2 2 6 11 15 18 18 19 22 23 20 21 25 26 27 31 33 36 45 53 57 56 51 51 56 58 59 60 58 47 37 41 49 47 42 44 52 59 64 66 67 68 68 68 65 60
39 39 39 39 39 38 36 34 31 29 28 26 25 24 23 23 24 25 26 28 30 30 31 32 32 30 29 27 25 23 20 16 13 10 7 5 5 5 5 5 4 2 4 7 9 12 16 17 17 20 24 22 20 24 26 26 29 31 31 35 41 48 56 58 54 52 56 60 61 62 58 46 40 47 54 50 45 47 53 58 61 63 65 66 66 65 62
38 38 38 38 36 35 34 33 31 29 27 25 24 23 23 23 24 25 25 26 28 29 30 30 30 29 28 26 24 22 21 18 16 13 9 6 4 5 6 6 5 5 6 6 6 8 12 15 16 19 23 22 22 24 25 25 26 28 30 33 35 37 44 53 56 54 54 57 60 63 62 54 47 48 55 57 54 50 50 51 51 54 60 64 63 62 61
37 37 36 34 33 33 32 32 30 29 27 26 25 24 23 23 23 24 24 24 25 27 28 29 29 29 28 26 24 21 20 19 17 14 12 9 6 5 4 4 5 5 6 6 5 5 7 12 16 18 19 18 20 24 27 26 25 25 27 31 34 36 37 42 50 56 57 56 56 60 62 61 58 56 55 57 59 58 53 49 47 47 52 57 60 61 61
37 35 32 30 31 32 31 31 30 29 28 28 27 25 24 23 23 23 24 24 23 24 25 26 27 28 28 27 25 22 20 18 17 15 13 11 9 7 5 4 5 6 6 7 8 7 7 10 13 15 16 15 18 23 28 28 27 26 27 29 32 36 38 39 42 50 59 60 58 59 62 64 66 65 58 55 59 62 59 56 53 50 49 50 54 57 58
36 32 29 28 30 31 31 30 28 27 28 28 28 27 26 25 24 23 23 23 23 22 23 24 25 26 27 27 26 25 22 20 18 16 15 14 13 11 9 8 7 6 5 7 9 9 9 10 11 12 13 14 17 22 26 28 28 29 27 27 30 33 36 39 40 44 52 58 58 59 61 62 64 65 62 61 64 66 64 62 60 58 53 50 51 53 54
33 29 27 28 30 30 30 29 27 26 27 28 28 28 28 27 25 24 24 23 22 21 22 23 23 23 24 25 26 26 25 23 21 19 17 16 15 13 12 11 10 8 7 7 8 9 10 10 10 12 13 14 17 22 25 26 27 29 28 28 29 30 32 37 41 43 46 50 53 56 61 63 63 64 66 69 71 69 66 64 64 63 60 56 53 53 54
31 28 27 28 29 28 28 28 27 26 26 28 29 29 29 28 27 26 25 24 23 21 21 22 22 22 22 24 25 26 26 26 25 24 22 20 19 17 16 14 13 11 10 9 8 9 9 9 10 11 12 14 17 21 24 24 25 28 31 32 31 31 31 33 38 43 46 48 50 56 64 68 70 72 74 76 76 72 68 65 65 65 64 63 60 58 57
29 28 28 28 27 26 27 27 26 26 27 29 30 30 29 29 29 28 27 26 26 24 22 21 21 21 21 22 24 25 25 25 25 25 25 25 24 23 22 20 18 15 13 12 10 8 7 6 7 7 7 8 12 16 21 23 23 26 31 34 34 34 35 34 35 40 45 47 50 56 63 69 72 76 79 81 80 78 74 71 70 69 67 66 65 64 62
28 27 27 27 25 24 25 25 25 26 28 28 27 27 27 29 30 30 30 29 29 27 25 22 21 21 21 21 22 23 24 24 25 26 26 26 26 25 25 25 23 21 19 17 15 13 12 9 6 4 4 3 4 8 11 14 16 20 27 32 34 34 35 35 36 39 42 46 50 55 60 64 67 70 74 77 79 78 76 73 72 72 71 69 68 66 64
28 27 27 25 23 23 24 24 24 26 27 27 26 27 29 31 32 32 32 32 31 30 28 26 25 24 23 23 23 24 24 25 26 27 27 27 26 26 26 25 23 21 21 19 17 16 15 13 11 9 7 6 4 3 3 5 10 16 22 27 32 34 35 37 39 40 41 44 49 55 61 64 65 66 70 75 79 80 79 76 75 75 75 74 72 69 66
27 27 26 23 21 22 24 24 24 25 27 26 26 27 29 31 32 33 34 34 33 32 30 29 29 29 28 28 28 29 30 31 30 29 28 27 26 25 25 24 21 19 18 17 16 16 16 15 14 14 13 12 9 6 4 1 7 14 15 15 18 24 28 32 37 42 44 46 50 55 61 64 65 67 69 72 78 81 81 79 78 78 78 78 76 73 70
26 25 23 19 17 20 22 23 24 25 26 24 23 24 27 29 31 33 34 34 34 33 31 30 30 31 31 31 32 33 35 36 36 34 32 31 30 29 27 25 24 21 20 20 21 22 23 23 22 21 19 17 14 11 8 3 6 10 10 7 8 11 14 18 23 28 35 41 46 50 54 57 61 65 68 71 76 80 81 79 78 79 79 78 76 75 73
24 22 20 16 15 18 21 23 24 24 23 21 21 22 25 28 30 31 33 34 34 34 34 32 32 32 32 32 32 32 33 34 35 36 35 35 35 34 33 32 32 30 29 29 30 31 32 31 31 31 29 25 22 18 12 4 5 7 8 6 6 7 9 11 13 15 19 26 32 38 43 47 53 59 64 68 73 77 78 78 77 77 77 77 76 75 74
21 20 18 16 16 18 20 22 22 21 20 20 21 22 24 26 27 28 30 30 31 32 33 33 33 33 33 33 33 32 31 31 32 33 34 34 34 35 35 36 36 37 36 36 35 35 33 32 33 33 32 30 28 24 17 8 4 6 6 4 4 5 6 9 12 15 17 20 26 31 36 41 46 52 56 61 66 71 75 76 76 76 77 76 74 74 73
19 18 18 18 19 20 19 18 18 19 20 21 22 22 22 23 25 25 26 26 27 28 30 30 31 31 32 34 34 33 32 31 31 30 30 31 31 31 32 32 32 33 35 36 37 36 34 33 32 31 30 29 28 25 21 17 12 7 6 6 6 7 8 8 10 12 13 16 20 24 29 35 41 46 50 54 58 64 69 72 73 74 75 74 73 73 72
18 16 16 18 20 20 19 18 18 20 21 21 21 21 21 22 22 23 23 23 24 25 26 27 28 29 28 30 32 32 32 32 32 31 30 30 30 29 29 28 28 28 29 31 33 35 34 32 31 31 29 28 26 23 24 26 22 13 10 10 8 7 9 10 10 10 11 13 14 17 20 25 31 37 42 47 51 56 60 63 66 69 71 71 71 70 69
16 14 15 16 18 19 20 20 21 21 21 22 21 21 21 21 20 19 20 21 21 21 21 23 26 27 26 26 28 29 29 30 32 33 32 31 31 31 30 29 29 28 28 27 28 29 29 29 30 31 30 28 26 23 22 23 21 15 10 9 9 8 7 7 8 9 10 13 14 16 18 20 23 28 33 39 44 49 52 56 59 62 64 64 64 64 65
17 15 15 16 17 19 21 21 21 21 22 22 20 19 19 18 17 17 18 19 20 20 18 18 22 26 25 24 25 26 26 27 29 31 31 31 32 33 33 32 32 31 31 30 27 26 26 26 26 27 28 27 26 22 17 15 15 14 11 9 10 10 8 4 4 6 7 10 12 14 17 21 22 24 26 31 37 42 46 49 53 55 55 56 57 58 59
19 17 17 17 19 21 22 23 23 23 22 21 19 19 18 18 17 17 17 17 18 19 17 15 17 22 24 23 22 23 26 26 26 27 28 31 32 32 32 34 33 32 33 33 31 28 26 24 23 23 24 24 24 23 19 14 13 13 12 11 10 11 11 8 6 6 5 6 8 10 13 18 21 21 20 23 29 36 41 45 47 49 49 51 52 52 52
21 19 19 20 20 21 22 23 24 23 21 20 19 19 18 18 17 17 17 17 16 16 16 15 15 19 22 21 19 21 26 27 24 23 26 29 30 30 31 32 32 32 32 33 32 31 28 24 22 23 24 24 24 24 21 17 14 13 14 14 12 10 11 11 9 9 8 4 4 8 10 14 17 18 17 17 22 28 36 43 46 47 47 48 48 47 47
22 21 21 20 21 22 22 22 23 22 21 19 19 18 17 17 17 16 17 17 16 14 14 14 15 16 18 17 16 19 24 25 22 22 24 26 27 27 29 30 31 31 31 31 30 29 28 27 26 26 25 23 22 23 22 19 17 16 16 16 12 9 8 10 10 9 9 9 5 1 5 9 12 14 15 16 18 23 30 38 44 47 47 47 46 44 42
21 21 21 19 20 22 22 21 21 20 19 17 17 16 15 16 16 16 16 17 17 15 13 13 13 13 14 14 15 19 22 21 19 20 22 24 24 25 26 27 28 29 30 29 28 27 27 29 30 30 28 25 23 22 22 21 20 18 16 15 12 9 7 8 10 8 8 10 11 8 3 2 6 10 14 15 16 19 23 30 38 43 45 44 42 39 35
20 20 19 18 20 23 22 20 18 17 16 14 14 15 15 16 16 16 16 16 16 16 15 13 13 13 14 15 17 20 20 19 19 20 21 23 24 25 24 24 25 26 27 26 25 25 27 29 30 29 28 27 26 24 22 21 20 19 17 14 12 9 8 8 10 10 8 9 11 9 6 3 2 6 9 11 14 16 18 21 30 38 42 41 40 39 36
19 17 18 19 20 21 19 17 15 16 16 16 16 17 17 17 17 17 17 16 16 16 16 15 16 16 16 16 17 18 18 19 19 19 20 21 23 24 23 23 24 24 23 22 22 24 26 27 28 28 27 27 27 26 24 22 20 20 19 16 13 10 9 7 7 7 6 7 9 10 8 3 4 7 6 8 14 18 18 19 26 35 40 41 41 41 44
17 17 19 20 18 17 17 16 16 18 20 20 19 19 19 18 18 18 17 17 17 16 16 17 17 17 17 18 19 19 19 19 19 19 19 20 21 22 24 24 23 22 20 20 21 23 24 25 26 27 27 27 27 27 27 25 22 19 17 16 16 14 11 8 5 4 4 5 7 8 8 4 4 8 6 8 15 19 20 24 32 37 38 39 40 43 46
17 19 20 19 17 18 19 19 18 19 21 21 20 20 20 19 19 19 19 18 18 17 17 18 19 18 18 19 20 20 20 20 19 19 20 19 20 21 22 21 21 21 20 20 21 22 22 22 22 23 25 25 25 25 25 25 24 21 18 16 16 17 15 12 10 8 7 7 7 7 6 3 5 10 10 11 17 21 24 31 41 44 40 38 39 41 42
18 19 19 19 19 20 20 19 18 19 20 19 19 20 20 20 20 20 19 19 20 19 19 20 21 21 21 21 21 21 21 21 20 20 20 20 20 21 22 22 22 22 21 20 21 22 21 20 19 20 21 22 23 23 23 23 22 22 21 18 16 15 14 14 13 12 11 10 10 9 6 4 6 10 12 15 20 25 27 32 39 40 36 34 35 37 37
18 18 19 20 20 19 19 19 18 18 19 19 19 19 20 20 20 20 20 21 21 20 21 21 22 22 22 23 23 23 23 22 22 22 22 22 22 23 23 24 24 22 20 19 21 22 21 20 19 18 18 19 19 20 20 21 21 21 20 19 18 16 14 13 12 11 11 12 14 14 12 8 7 10 15 19 23 25 26 28 31 31 28 27 29 31 31
19 18 18 18 17 17 17 17 17 17 18 18 19 19 19 20 20 20 20 21 21 21 22 23 22 22 23 23 24 24 24 24 25 24 24 24 24 24 24 24 24 22 20 19 20 21 21 21 21 20 19 19 18 18 18 19 19 19 19 19 18 18 16 15 13 10 9 9 11 14 14 13 11 12 16 20 23 23 23 24 26 27 26 26 26 27 26
18 17 16 16 16 16 16 16 17 17 17 17 18 18 19 20 20 20 20 20 21 21 22 22 22 22 23 23 24 25 26 26 26 26 25 25 25 25 24 24 24 23 22 21 20 20 20 20 21 21 21 20 19 18 17 17 17 18 18 18 18 18 17 16 14 12 10 7 7 9 11 13 15 18 20 23 25 26 26 26 26 27 27 27 28 29 29
18 17 17 17 17 17 17 17 17 17 17 17 18 18 18 19 19 19 19 20 20 21 21 22 22 22 23 23 25 26 27 26 26 26 26 26 25 25 25 23 22 22 23 23 22 21 20 19 20 21 21 21 20 19 18 18 17 16 16 17 17 17 17 16 15 14 12 10 7 6 7 10 13 17 22 26 29 31 32 32 31 31 31 31 31 32 33
Wind_Direction
329 328 329 329 330 331 332 333 334 333 332 330 330 329 328 329 327 324 327 329 325 322 319 315 315 319 319 317 315 313 315 318 315 307 293 278 268 260 251 247 241 225 211 200 187 184 185 179 179 182 183 186 189 192 198 201 205 208 209 211 208 203 201 200 197 190 193 217 232 230 226 223 224 225 222 222 227 231 230 226 229 230 227 224 215 207 221
330 328 328 329 331 332 333 334 334 333 333 332 331 331 328 328 327 324 326 329 326 322 317 312 310 314 317 315 312 311 310 312 312 309 301 287 271 259 249 245 243 229 215 205 195 188 185 181 184 188 184 184 187 189 193 197 201 205 207 210 208 203 201 202 201 193 185 200 216 225 225 220 218 222 222 220 220 227 231 224 226 231 229 228 220 211 226
330 329 328 329 331 333 333 334 333 333 334 333 333 332 329 328 327 325 326 329 326 321 315 310 308 311 316 314 307 306 306 308 312 312 312 304 280 259 248 243 241 231 216 210 206 196 187 187 191 192 183 180 186 191 192 194 198 202 204 208 208 203 201 203 204 197 189 194 206 217 221 218 215 215 220 221 213 214 227 222 220 225 226 229 223 210 225
329 327 326 328 330 331 332 334 333 334 335 334 334 333 330 330 330 328 329 329 326 321 314 310 310 310 314 313 305 299 301 305 310 314 319 316 292 264 251 242 240 235 217 213 213 206 196 198 199 193 181 176 186 192 192 193 198 199 199 205 209 205 202 202 203 198 192 195 205 211 216 220 219 212 214 221 211 201 215 221 218 220 223 226 222 207 217
328 325 324 326 328 330 332 334 335 335 335 334 335 333 331 332 333 331 331 329 326 324 317 312 313 313 313 312 303 293 295 303 308 313 319 318 303 276 258 246 240 239 222 214 217 214 210 211 205 192 181 178 187 192 191 194 199 197 196 202 207 208 205 203 201 197 192 193 203 207 205 211 220 213 209 219 215 202 205 216 216 217 219 221 218 209 212
328 324 324 325 328 330 332 335 336 336 335 334 334 334 332 333 333 332 332 332 331 329 321 315 315 315 315 313 303 290 291 300 306 311 314 313 311 299 279 266 252 249 233 216 217 221 222 218 207 192 184 183 190 194 192 194 198 195 194 199 205 207 205 203 200 196 192 192 198 205 205 206 212 209 204 213 219 212 209 210 210 215 216 211 211 208 204
328 325 325 327 329 332 334 336 337 336 335 334 335 335 333 332 332 334 338 339 338 334 326 319 319 317 315 313 306 294 291 296 301 307 310 309 317 320 306 293 271 262 250 221 218 225 228 221 210 198 189 185 191 198 197 195 196 195 193 196 202 205 204 202 200 196 195 196 195 197 203 207 208 202 197 206 217 219 214 206 202 213 215 205 205 209 206
328 326 327 329 331 334 336 336 336 336 336 336 336 336 334 332 333 339 345 345 343 340 331 322 320 316 313 311 306 298 294 293 296 305 310 309 312 316 311 303 283 268 264 232 220 225 230 223 214 205 193 185 187 199 202 199 197 196 194 195 200 202 203 203 200 196 196 197 196 193 194 202 205 197 191 199 214 223 220 208 200 208 214 206 204 212 211
328 327 329 331 334 337 337 337 336 335 336 337 337 338 336 335 338 344 350 350 348 346 337 324 319 316 313 312 308 302 294 291 294 302 309 310 309 311 310 307 294 275 268 240 222 226 229 224 219 212 199 186 181 192 204 203 200 198 196 196 198 200 202 204 202 199 197 196 197 193 190 199 206 199 189 189 201 216 221 213 204 203 212 210 203 210 213
328 329 331 333 337 338 338 337 336 336 337 337 339 339 338 339 343 348 351 353 352 348 340 327 319 317 313 308 307 307 299 293 297 304 307 307 306 307 309 307 301 279 257 236 222 224 227 224 222 217 208 196 183 183 200 207 204 200 198 198 198 198 201 204 204 202 199 198 200 198 194 201 205 199 192 187 189 199 213 217 209 201 206 209 204 208 210
330 332 334 335 338 339 338 337 337 337 338 338 340 342 340 343 348 349 351 355 352 347 342 331 321 318 312 302 304 313 310 298 300 306 307 307 304 305 308 307 299 277 249 232 223 223 225 224 223 220 216 207 192 180 190 207 208 203 199 200 200 199 200 204 205 203 198 197 202 204 202 203 203 201 196 186 181 186 197 214 219 209 205 210 212 216 215
333 334 335 336 338 339 338 337 336 337 338 339 341 343 343 346 350 349 350 354 351 346 345 336 323 320 319 309 305 314 318 308 304 309 309 310 307 304 309 309 300 282 251 233 228 224 223 224 224 222 220 216 206 189 181 199 210 206 201 200 202 202 201 203 205 204 199 197 201 207 208 203 201 204 201 189 184 186 185 194 213 214 208 209 213 220 224
335 336 337 337 339 339 338 338 337 337 340 342 343 344 345 347 350 349 350 353 352 351 352 345 330 324 325 318 309 312 317 315 312 313 312 315 313 310 315 318 308 287 257 240 237 229 221 222 223 222 222 221 217 205 183 187 206 209 204 203 204 205 204 204 205 205 202 199 201 209 212 205 201 206 204 197 196 191 181 181 190 197 200 202 203 210 219
338 337 338 338 339 339 339 339 339 340 344 345 344 344 346 347 348 348 351 353 355 355 357 354 344 332 326 319 315 316 317 318 319 316 312 314 313 317 324 323 316 300 267 246 243 236 221 218 221 221 222 223 223 217 199 186 196 206 207 205 205 207 207 206 205 205 204 203 203 208 212 211 209 209 205 202 201 194 185 184 186 191 196 199 201 205 211
339 339 339 339 340 340 340 341 342 345 347 348 346 345 346 346 346 348 350 354 358 359 359 360 354 344 332 319 315 320 325 326 323 316 311 310 308 317 330 325 319 317 286 247 240 235 222 210 213 217 219 221 224 222 216 206 197 198 206 208 207 208 209 209 207 204 203 203 203 205 210 214 215 213 208 207 202 193 191 192 188 190 196 198 200 204 209
340 339 340 340 341 341 342 343 346 348 350 350 349 349 348 344 344 348 349 353 360 1 1 2 360 355 348 330 318 327 339 336 326 320 313 312 309 313 328 329 319 313 295 240 228 225 218 196 189 204 212 215 221 224 224 222 215 203 201 207 210 210 209 210 210 206 202 200 198 198 203 213 218 216 214 217 212 198 194 197 195 193 196 198 202 207 211
340 340 341 342 342 341 343 345 348 349 351 352 353 353 350 344 342 347 349 352 359 2 2 3 3 1 0 349 332 336 345 341 338 334 315 304 311 311 318 329 319 301 288 231 217 216 211 192 174 185 199 207 214 219 222 226 226 218 209 204 208 213 211 208 209 208 204 199 193 190 197 207 214 215 213 219 221 210 200 200 200 200 202 207 213 215 215
341 342 343 343 343 342 344 346 348 350 351 353 356 356 351 343 341 346 348 351 356 0 1 3 5 5 6 3 355 351 353 349 345 344 325 310 316 315 310 318 314 298 295 232 210 207 203 190 177 178 190 199 206 211 216 221 224 224 220 211 206 211 213 211 209 207 204 200 191 183 189 195 196 202 207 214 220 218 209 205 205 207 211 215 219 221 221
343 344 345 344 344 344 345 347 348 350 351 353 356 357 352 344 343 347 349 350 353 357 0 3 5 7 9 10 9 8 9 3 348 347 354 334 310 307 313 316 312 313 322 216 199 196 193 187 182 183 189 195 198 201 209 216 217 222 226 222 213 210 212 214 212 207 203 200 193 185 189 194 191 195 207 214 217 218 215 212 211 213 215 218 221 223 224
345 346 345 346 346 346 347 348 349 350 351 352 356 357 351 345 346 349 351 352 353 355 359 2 4 7 10 13 15 16 17 13 6 13 24 347 306 302 318 321 322 339 32 174 185 186 183 184 187 188 185 189 195 195 196 204 210 215 223 224 220 214 211 213 216 212 206 203 198 193 194 197 194 195 203 212 216 218 219 217 216 217 219 220 223 223 223
346 347 346 347 348 348 349 350 350 350 350 350 354 355 351 348 350 351 352 354 355 356 358 1 4 6 9 14 19 22 22 19 19 26 28 9 359 348 332 345 12 27 102 155 174 181 181 185 193 194 188 185 191 192 191 196 200 205 216 223 223 220 215 212 213 214 211 207 203 200 199 201 201 201 202 208 214 219 221 220 220 221 222 223 224 224 223
348 349 348 349 352 352 353 353 353 351 350 349 351 354 354 353 353 353 353 354 357 359 360 1 3 5 8 12 18 24 27 26 26 28 29 30 39 32 16 30 62 117 139 139 158 180 188 196 202 199 196 197 195 191 192 194 196 200 209 217 218 219 219 216 212 211 210 210 209 206 203 203 207 207 206 208 212 217 220 220 220 222 224 224 225 226 225
350 350 350 353 356 357 357 358 357 354 352 352 352 355 357 357 356 355 355 355 357 1 4 5 6 7 8 11 16 21 26 31 33 34 34 38 53 64 64 67 84 130 154 155 166 187 196 205 207 201 201 207 209 204 199 197 198 202 206 210 212 212 215 218 218 215 212 211 213 213 208 206 208 209 208 210 211 214 218 218 216 220 225 224 225 226 225
351 351 353 357 0 1 1 1 1 359 359 359 0 359 359 359 357 357 357 358 360 3 7 9 10 11 11 12 16 20 24 30 36 39 41 45 54 68 79 87 105 134 167 183 184 183 194 200 200 199 204 212 217 216 213 208 205 208 210 211 212 210 209 213 216 218 216 214 215 216 213 210 211 211 211 212 212 213 216 215 211 213 221 223 223 225 225
353 354 357 1 3 3 3 3 3 3 5 7 7 6 3 1 359 358 359 0 1 4 9 12 13 15 16 15 17 21 24 29 35 41 45 48 54 62 71 90 118 136 161 176 173 167 170 177 183 194 208 218 218 217 218 215 211 211 214 214 213 214 214 214 215 217 218 217 216 217 217 216 216 215 214 215 216 214 215 216 212 211 215 219 220 222 224
355 358 2 4 5 4 4 5 4 7 11 14 14 13 11 7 3 0 360 1 0 1 6 11 13 15 19 20 22 24 25 28 33 39 45 51 58 66 73 84 105 129 150 167 174 175 174 178 187 198 209 217 216 214 216 218 216 214 215 215 214 216 218 218 217 218 219 219 219 221 223 223 222 220 219 221 222 220 218 218 217 215 215 218 219 220 221
358 1 4 5 5 6 7 7 7 11 17 19 19 18 17 13 10 7 4 2 0 360 3 8 10 12 16 21 24 27 29 31 34 37 42 47 53 61 70 80 93 108 125 148 165 171 175 183 191 199 205 209 211 210 212 217 220 219 218 217 216 217 219 219 220 220 219 218 219 222 224 223 222 221 221 222 224 223 221 221 221 220 219 220 222 223 222
359 0 3 5 6 7 8 8 9 13 18 21 21 21 19 18 16 13 11 9 7 6 7 8 8 10 13 17 21 25 29 31 34 37 40 43 46 49 55 62 71 82 93 107 126 142 154 165 176 188 200 206 209 211 211 213 215 216 217 219 221 220 220 220 222 222 221 219 218 221 223 223 221 221 221 221 222 223 223 223 224 224 224 225 226 227 227
358 358 0 3 5 7 8 8 11 14 18 21 22 22 22 23 23 20 19 18 15 14 15 13 12 14 16 16 17 20 24 27 29 30 32 35 36 37 39 41 44 48 54 60 68 82 98 123 148 162 173 188 201 208 210 212 213 211 212 216 221 224 224 224 225 225 224 223 223 224 225 225 225 225 225 224 223 223 223 224 225 226 226 227 228 229 229
358 356 357 0 4 5 5 8 13 18 21 23 26 29 31 34 34 30 28 27 25 23 23 24 24 26 28 27 27 28 29 30 29 28 27 28 28 29 30 33 35 35 34 35 36 36 36 39 47 57 72 110 162 185 195 204 209 211 214 217 220 222 224 226 229 229 227 226 227 227 226 227 228 229 229 228 227 227 226 226 226 227 227 228 228 229 230
357 354 354 357 1 3 5 9 16 23 26 29 34 41 44 43 40 36 33 33 32 32 33 37 40 43 44 46 49 50 49 44 40 38 36 33 32 33 32 33 37 40 40 40 40 39 38 37 37 38 40 50 77 133 184 198 201 208 218 222 222 222 223 225 229 232 231 229 230 230 228 227 228 229 230 230 230 229 228 227 227 229 229 229 229 229 230
356 352 351 354 0 4 7 12 20 28 34 36 39 43 45 43 41 40 38 37 38 39 42 46 50 53 55 57 60 62 62 61 57 53 48 43 42 44 43 42 44 49 50 51 51 49 49 48 45 41 39 41 48 49 35 8 218 222 229 234 233 232 231 231 233 235 236 235 236 236 234 231 230 231 231 232 231 230 229 228 228 229 230 230 231 231 232
354 351 351 355 3 8 11 16 24 31 37 40 43 43 41 39 39 40 41 42 42 44 47 50 52 55 58 60 62 64 65 65 65 63 61 59 58 58 57 56 57 58 59 60 61 59 56 53 49 43 39 35 30 19 10 342 251 254 265 270 261 253 247 242 240 239 238 239 240 240 239 238 237 235 234 234 234 233 231 230 230 230 230 231 232 233 234
351 350 354 1 8 13 15 19 26 32 35 39 42 41 38 36 35 37 41 45 46 46 48 50 51 53 55 57 60 62 62 63 64 64 64 63 62 63 63 63 64 65 67 67 67 65 62 58 54 49 43 36 27 12 357 327 272 283 292 285 267 255 243 236 232 229 230 233 235 236 236 237 238 239 238 237 237 236 234 233 233 233 232 232 233 234 235
349 348 354 3 11 14 16 18 23 27 32 35 38 38 36 34 32 33 38 43 46 47 47 48 50 51 52 53 55 56 56 58 61 62 62 62 60 61 63 63 64 65 66 67 67 66 64 60 56 50 43 37 28 17 7 360 316 284 286 286 269 255 240 231 227 223 223 226 227 227 227 229 232 236 238 238 238 238 237 236 235 235 235 235 235 236 237
350 348 355 8 14 15 15 18 20 23 28 32 35 35 34 32 30 30 33 38 42 43 43 44 46 47 48 50 52 52 50 50 53 55 56 57 56 56 57 58 58 59 60 61 61 61 61 59 55 50 46 40 31 21 14 13 5 343 344 350 316 271 250 241 237 233 231 230 229 227 225 226 228 230 233 235 237 239 239 238 238 237 237 237 237 238 238
353 354 5 18 21 19 19 21 21 20 22 27 31 30 27 26 27 27 27 30 34 35 36 38 41 43 43 44 47 47 45 43 45 47 47 47 48 48 47 47 46 47 50 54 55 56 58 58 54 50 47 41 35 28 22 16 13 10 9 3 339 284 254 249 249 246 238 230 228 227 227 227 228 227 228 230 233 235 237 238 238 239 239 238 239 239 240
353 4 19 26 27 25 25 25 23 19 16 18 20 18 15 15 18 18 20 24 25 24 27 32 36 38 38 38 40 43 42 40 39 40 39 40 40 39 37 36 35 34 38 43 46 49 55 59 57 52 48 42 37 33 26 18 18 22 18 5 354 333 297 266 259 261 249 234 228 226 226 228 229 227 225 224 226 229 232 234 235 237 238 239 239 240 241
356 13 27 31 32 31 29 26 25 22 16 12 8 3 358 360 6 10 13 16 16 16 19 27 29 29 30 31 34 36 36 34 33 32 32 32 32 31 29 30 29 28 30 34 35 36 43 52 55 54 52 47 40 33 25 19 22 24 18 11 8 0 348 326 294 287 262 235 227 229 229 229 230 229 224 221 220 222 225 228 231 233 234 235 236 238 239
359 12 23 29 33 33 28 23 20 18 13 6 358 352 350 352 360 6 7 7 10 14 17 18 17 17 20 23 28 30 29 27 27 27 25 24 23 22 21 23 23 23 26 29 29 27 31 41 47 50 51 49 42 35 28 23 20 13 6 11 19 15 7 4 360 343 311 250 230 235 235 230 230 231 227 219 216 216 216 218 221 224 226 228 231 233 235
356 2 11 18 23 24 22 18 13 8 4 359 355 352 352 353 358 3 4 3 5 10 11 9 8 11 14 19 24 25 22 20 20 19 15 13 14 14 15 16 16 17 21 26 26 24 26 33 41 44 46 45 41 37 33 29 23 12 2 3 13 20 15 15 25 27 13 343 255 242 238 226 222 226 226 219 217 216 213 210 210 212 215 219 222 225 227
351 353 358 5 12 14 14 11 4 357 354 353 351 348 349 354 358 360 360 1 4 7 6 6 8 11 15 20 20 14 10 11 11 9 4 3 5 8 11 12 11 11 15 19 21 20 21 28 36 41 42 41 39 39 37 34 29 21 11 9 21 40 32 18 21 29 27 24 22 294 230 217 216 220 220 217 219 220 216 210 206 205 207 211 213 213 217
350 349 350 355 6 11 10 4 355 348 344 342 341 342 346 354 358 356 356 360 5 6 3 2 3 3 3 1 354 351 354 359 0 357 355 355 358 4 8 9 9 10 11 13 12 13 16 22 28 32 34 34 35 37 38 37 36 35 30 29 40 64 66 37 21 16 18 24 29 34 45 203 220 219 214 214 217 216 213 210 206 202 201 201 198 195 202
352 350 350 357 6 10 6 357 349 345 345 345 348 353 357 356 354 352 352 354 355 355 354 356 358 355 350 343 339 341 344 347 348 348 348 349 353 359 2 4 8 11 10 7 5 9 14 19 23 25 27 28 30 32 34 36 38 41 43 47 56 75 85 63 33 22 18 13 8 6 12 39 115 169 189 204 207 202 200 205 205 199 193 188 183 183 192
354 354 2 8 8 4 359 354 353 357 2 5 7 8 7 2 356 353 352 350 348 349 352 353 353 352 350 346 344 344 345 344 344 345 346 347 349 351 354 358 4 7 4 360 2 9 14 16 18 19 20 22 26 28 28 30 34 37 39 43 53 72 90 83 50 36 35 20 0 348 342 0 133 143 152 176 185 186 188 191 189 184 179 178 181 189 196
1 8 15 15 9 2 0 3 8 11 12 12 12 10 8 5 2 360 359 359 357 356 358 360 359 357 355 353 350 348 347 348 347 347 348 348 348 349 351 353 355 356 354 354 359 7 13 13 13 13 14 16 20 22 22 23 27 31 33 35 41 51 68 83 84 66 43 23 10 358 345 325 189 176 167 159 166 175 180 178 176 176 179 183 191 200 204
13 20 22 18 14 14 15 15 15 15 14 13 13 12 9 8 7 6 6 6 5 3 3 6 6 3 0 357 354 350 348 349 351 352 352 350 349 350 351 349 346 349 353 355 357 1 6 7 7 7 8 10 13 15 16 17 20 22 26 30 34 41 52 67 81 85 69 49 45 40 22 12 178 183 189 183 176 180 184 182 180 183 189 194 199 205 208
18 24 24 22 20 21 21 20 19 18 16 15 16 16 15 15 14 13 13 13 12 11 11 12 10 6 4 1 358 354 354 354 354 354 353 351 349 351 351 349 348 351 355 356 354 354 356 356 357 360 1 1 4 6 7 9 12 16 19 23 27 34 45 58 74 91 100 99 100 102 94 97 142 167 185 191 185 182 184 185 185 187 191 194 199 206 209
18 21 23 22 20 19 19 19 18 17 16 16 16 17 17 16 16 15 16 16 14 13 13 14 11 7 5 3 1 359 360 360 358 356 355 354 353 352 352 351 352 355 357 354 351 350 348 346 348 352 353 353 353 354 356 359 2 5 10 15 19 23 32 44 60 83 106 121 132 142 152 158 157 166 179 185 183 180 180 184 188 191 195 200 206 211 214
14 17 18 17 15 13 13 13 13 13 13 13 13 12 13 13 13 13 14 15 13 12 13 13 10 7 5 4 2 1 1 1 360 358 357 356 355 354 352 351 351 354 355 353 351 349 346 343 343 346 349 348 345 344 345 348 350 352 357 3 9 12 18 28 40 56 84 116 136 148 160 169 170 170 177 183 188 192 193 194 194 197 202 210 218 222 222
8 8 8 8 7 7 6 6 6 7 7 8 8 8 8 7 7 8 10 11 11 11 11 9 7 6 6 4 2 2 2 1 360 358 357 355 354 354 354 354 353 352 352 352 349 348 347 345 344 343 343 340 338 337 337 338 338 341 345 350 355 359 4 11 19 29 44 74 110 132 149 162 168 169 172 178 186 194 200 203 203 205 209 215 222 225 225
358 358 358 358 359 359 358 358 359 0 1 2 4 4 4 2 1 2 3 5 6 7 7 5 5 5 4 3 2 3 2 0 358 356 354 353 353 354 355 356 354 349 347 347 347 347 348 346 343 340 338 335 333 334 334 333 331 331 334 338 342 345 349 354 359 7 16 28 53 94 128 151 165 171 174 176 178 183 189 195 201 207 211 215 218 221 224
Height
5747 5743 5740 5737 5733 5730 5726 5721 5717 5713 5709 5706 5702 5698 5694 5689 5684 5679 5678 5675 5670 5666 5663 5659 5657 5654 5651 5647 5645 5642 5640 5637 5634 5632 5630 5628 5628 5628 5628 5628 5629 5633 5636 5639 5644 5648 5649 5653 5656 5649 5644 5651 5666 5679 5689 5697 5705 5710 5716 5723 5731 5737 5742 5748 5754 5760 5767 5773 5773 5773 5777 5782 5785 5788 5793 5796 5799 5802 5806 5810 5814 5816 5819 5823 5826 5829 5830
5745 5741 5738 5734 5731 5727 5722 5718 5713 5709 5705 5701 5698 5694 5690 5686 5682 5676 5672 5670 5665 5662 5658 5655 5653 5650 5647 5644 5641 5639 5637 5634 5631 5629 5627 5625 5623 5624 5624 5623 5623 5626 5630 5632 5635 5639 5643 5647 5644 5638 5638 5646 5656 5666 5675 5684 5694 5700 5706 5713 5720 5728 5735 5741 5748 5754 5760 5767 5769 5767 5768 5773 5778 5782 5786 5792 5797 5800 5803 5808 5812 5813 5816 5819 5823 5827 5826
5743 5739 5735 5731 5728 5724 5720 5715 5710 5706 5701 5697 5692 5689 5685 5682 5679 5673 5669 5665 5661 5657 5653 5650 5648 5645 5643 5640 5638 5636 5633 5631 5629 5626 5624 5621 5619 5619 5618 5618 5618 5620 5624 5625 5625 5629 5636 5637 5634 5633 5637 5645 5651 5656 5663 5674 5682 5688 5698 5707 5712 5720 5727 5731 5739 5747 5753 5758 5760 5761 5763 5768 5773 5778 5781 5786 5794 5798 5800 5804 5807 5810 5813 5815 5820 5825 5823
5740 5736 5732 5728 5725 5722 5718 5713 5708 5703 5698 5694 5689 5684 5680 5677 5673 5669 5666 5661 5656 5652 5648 5645 5643 5641 5639 5636 5634 5632 5630 5628 5626 5623 5621 5618 5616 5615 5614 5614 5615 5616 5619 5620 5618 5621 5626 5626 5625 5630 5636 5643 5647 5651 5659 5666 5670 5679 5694 5702 5706 5713 5719 5724 5733 5742 5750 5755 5756 5759 5763 5766 5769 5774 5778 5781 5789 5795 5798 5800 5804 5807 5809 5812 5816 5821 5821
5737 5733 5729 5726 5722 5718 5715 5711 5706 5700 5695 5691 5686 5681 5675 5671 5668 5663 5660 5657 5652 5648 5644 5641 5638 5636 5634 5632 5630 5629 5627 5625 5623 5621 5618 5616 5614 5612 5611 5611 5612 5612 5615 5615 5612 5615 5617 5615 5619 5628 5634 5638 5641 5647 5654 5658 5662 5675 5688 5694 5700 5708 5714 5721 5730 5736 5742 5747 5751 5755 5758 5761 5764 5771 5776 5778 5784 5790 5793 5796 5801 5805 5807 5810 5814 5818 5819
5735 5731 5727 5723 5719 5715 5711 5708 5703 5698 5693 5687 5683 5678 5672 5668 5664 5659 5655 5651 5647 5644 5641 5637 5635 5632 5630 5628 5627 5625 5624 5623 5621 5618 5616 5614 5612 5610 5609 5608 5609 5609 5610 5611 5609 5609 5609 5610 5617 5625 5630 5633 5638 5643 5646 5651 5660 5670 5677 5685 5691 5697 5706 5716 5725 5731 5735 5739 5745 5750 5753 5755 5759 5766 5773 5776 5780 5785 5789 5793 5799 5802 5804 5808 5812 5815 5817
5732 5728 5724 5721 5716 5712 5708 5704 5700 5695 5690 5685 5680 5675 5670 5665 5662 5657 5652 5647 5643 5640 5637 5633 5631 5629 5627 5625 5623 5622 5621 5620 5619 5617 5615 5612 5609 5607 5606 5606 5606 5606 5606 5607 5606 5604 5605 5609 5615 5621 5625 5629 5635 5640 5642 5648 5657 5662 5666 5675 5682 5690 5701 5712 5720 5728 5731 5733 5738 5743 5748 5752 5755 5760 5769 5775 5777 5780 5785 5792 5797 5799 5802 5806 5809 5811 5814
5729 5725 5722 5718 5714 5710 5706 5701 5696 5691 5687 5683 5678 5673 5667 5662 5659 5655 5650 5644 5640 5637 5633 5630 5627 5625 5623 5621 5620 5619 5618 5617 5615 5614 5612 5610 5607 5605 5604 5603 5603 5603 5603 5604 5604 5601 5602 5607 5612 5616 5621 5625 5629 5635 5640 5645 5652 5657 5660 5665 5673 5686 5698 5706 5714 5720 5723 5729 5735 5739 5744 5750 5751 5755 5764 5773 5776 5778 5782 5789 5794 5796 5799 5802 5805 5808 5811
5727 5723 5720 5716 5712 5708 5703 5698 5692 5688 5684 5680 5675 5670 5664 5659 5655 5651 5647 5642 5637 5634 5630 5626 5623 5621 5619 5618 5616 5615 5615 5613 5612 5611 5609 5607 5605 5603 5602 5601 5600 5600 5599 5600 5602 5600 5600 5604 5609 5612 5616 5621 5626 5632 5637 5643 5649 5655 5657 5659 5668 5682 5690 5697 5706 5711 5718 5726 5731 5735 5740 5743 5747 5752 5759 5767 5773 5776 5779 5784 5789 5793 5796 5799 5803 5805 5807
5724 5721 5717 5714 5710 5705 5700 5695 5690 5685 5680 5676 5672 5668 5662 5657 5652 5648 5644 5639 5634 5630 5627 5623 5620 5617 5615 5614 5612 5612 5611 5610 5609 5608 5606 5604 5602 5601 5600 5598 5597 5597 5596 5596 5598 5599 5599 5602 5605 5609 5613 5618 5624 5629 5635 5639 5644 5650 5656 5660 5667 5674 5679 5687 5694 5702 5714 5724 5727 5731 5735 5736 5742 5749 5754 5760 5768 5775 5779 5781 5784 5790 5793 5796 5798 5800 5804
5722 5719 5715 5711 5707 5702 5697 5691 5687 5682 5678 5673 5670 5666 5660 5656 5651 5646 5642 5637 5632 5628 5624 5621 5618 5615 5613 5611 5610 5609 5608 5607 5606 5605 5604 5603 5601 5599 5598 5596 5595 5594 5594 5593 5595 5597 5598 5599 5601 5605 5610 5615 5621 5626 5631 5636 5640 5647 5656 5661 5664 5666 5671 5679 5685 5695 5709 5720 5724 5727 5728 5731 5739 5744 5748 5755 5763 5769 5776 5778 5780 5786 5790 5793 5796 5797 5799
5721 5717 5713 5709 5704 5699 5694 5689 5684 5680 5676 5671 5668 5664 5659 5654 5650 5645 5641 5637 5632 5626 5622 5619 5616 5613 5611 5609 5607 5606 5606 5605 5604 5603 5602 5601 5600 5598 5597 5595 5593 5592 5592 5592 5594 5596 5597 5597 5599 5603 5607 5612 5618 5622 5626 5631 5637 5644 5652 5657 5660 5663 5668 5674 5682 5692 5704 5712 5717 5717 5717 5725 5734 5737 5743 5751 5755 5760 5768 5774 5779 5785 5788 5791 5793 5793 5793
5719 5715 5711 5706 5702 5697 5692 5687 5682 5677 5674 5670 5666 5662 5657 5653 5649 5644 5640 5636 5631 5625 5621 5618 5614 5611 5609 5607 5605 5604 5603 5602 5601 5600 5599 5599 5598 5597 5596 5594 5593 5592 5591 5591 5593 5595 5597 5597 5598 5601 5605 5609 5614 5619 5624 5629 5634 5640 5648 5654 5658 5663 5667 5671 5679 5689 5697 5704 5707 5708 5714 5724 5730 5734 5743 5751 5753 5758 5764 5768 5773 5778 5781 5783 5785 5785 5785
5718 5714 5709 5704 5699 5694 5689 5684 5680 5675 5672 5668 5665 5661 5656 5652 5648 5643 5639 5635 5630 5624 5620 5616 5613 5609 5607 5605 5603 5602 5601 5599 5599 5598 5597 5597 5596 5595 5594 5593 5592 5591 5590 5590 5592 5594 5596 5597 5598 5600 5605 5609 5613 5619 5625 5629 5632 5637 5644 5651 5656 5661 5667 5671 5676 5683 5690 5696 5701 5706 5714 5722 5725 5730 5739 5744 5747 5756 5760 5760 5762 5767 5772 5776 5777 5777 5778
5716 5712 5707 5702 5697 5692 5687 5683 5678 5674 5670 5667 5663 5660 5655 5651 5647 5642 5638 5634 5629 5624 5619 5615 5611 5608 5605 5603 5601 5600 5599 5598 5597 5596 5595 5595 5595 5594 5593 5593 5591 5590 5589 5589 5591 5593 5595 5597 5598 5600 5604 5609 5613 5619 5625 5628 5632 5637 5642 5648 5653 5659 5664 5668 5672 5678 5684 5692 5699 5706 5713 5717 5719 5725 5730 5732 5738 5747 5751 5752 5756 5760 5763 5767 5769 5771 5772
5714 5710 5705 5700 5695 5691 5686 5682 5677 5673 5669 5666 5662 5658 5654 5650 5646 5642 5638 5634 5629 5624 5619 5615 5611 5607 5604 5602 5600 5598 5598 5597 5595 5594 5594 5594 5594 5593 5592 5592 5591 5589 5588 5588 5590 5592 5594 5596 5598 5600 5603 5607 5611 5617 5623 5627 5631 5636 5641 5645 5650 5655 5660 5664 5669 5675 5681 5687 5694 5703 5709 5712 5714 5720 5725 5725 5731 5740 5744 5747 5750 5749 5750 5756 5762 5766 5767
5712 5708 5703 5699 5694 5689 5685 5681 5676 5672 5669 5665 5661 5658 5654 5650 5645 5642 5638 5633 5629 5625 5620 5615 5611 5606 5603 5601 5599 5597 5596 5595 5594 5593 5593 5593 5592 5591 5591 5591 5590 5589 5588 5588 5589 5591 5593 5596 5599 5601 5604 5607 5610 5616 5620 5624 5629 5634 5638 5642 5646 5651 5655 5660 5667 5674 5679 5683 5690 5699 5705 5707 5708 5714 5719 5719 5722 5732 5739 5742 5741 5741 5744 5750 5753 5757 5760
5711 5706 5702 5697 5693 5688 5684 5680 5676 5672 5668 5665 5661 5657 5654 5650 5645 5642 5638 5633 5630 5626 5621 5616 5611 5607 5603 5600 5598 5596 5595 5594 5593 5592 5591 5591 5591 5591 5590 5590 5590 5589 5588 5588 5589 5591 5594 5596 5599 5601 5605 5608 5611 5615 5618 5621 5626 5629 5632 5636 5642 5646 5651 5657 5663 5671 5676 5680 5685 5691 5696 5698 5699 5703 5706 5708 5713 5723 5731 5734 5735 5737 5742 5746 5746 5750 5756
5709 5705 5701 5696 5692 5687 5683 5679 5675 5671 5667 5664 5661 5657 5653 5650 5646 5642 5638 5634 5630 5626 5623 5618 5613 5608 5604 5600 5598 5596 5594 5593 5592 5592 5591 5591 5591 5590 5590 5590 5590 5589 5589 5588 5589 5591 5593 5596 5598 5601 5604 5607 5609 5613 5617 5620 5624 5626 5628 5633 5639 5644 5649 5654 5658 5665 5671 5676 5680 5683 5685 5688 5691 5694 5696 5700 5706 5712 5718 5723 5728 5731 5736 5739 5742 5747 5754
5708 5704 5699 5695 5690 5686 5682 5678 5674 5670 5667 5663 5660 5657 5653 5649 5646 5642 5638 5635 5631 5627 5623 5619 5615 5610 5606 5602 5599 5596 5594 5593 5593 5591 5591 5590 5590 5590 5590 5590 5589 5589 5589 5588 5589 5590 5593 5596 5598 5600 5603 5605 5608 5611 5615 5618 5622 5624 5626 5629 5634 5639 5645 5650 5655 5661 5666 5670 5674 5677 5677 5680 5685 5689 5693 5697 5700 5703 5709 5716 5721 5725 5731 5735 5738 5744 5750
5707 5703 5698 5694 5689 5685 5681 5677 5673 5669 5666 5662 5659 5656 5653 5649 5645 5642 5639 5636 5632 5628 5624 5620 5616 5612 5608 5604 5601 5598 5596 5594 5593 5592 5591 5591 5591 5591 5591 5590 5590 5590 5590 5590 5590 5592 5594 5596 5597 5599 5602 5604 5607 5610 5613 5615 5618 5621 5622 5624 5629 5636 5641 5645 5650 5656 5661 5665 5667 5669 5672 5676 5680 5684 5688 5691 5694 5698 5705 5711 5717 5722 5727 5731 5734 5740 5746
5706 5702 5697 5693 5689 5684 5680 5676 5672 5669 5665 5662 5659 5655 5652 5649 5645 5642 5639 5636 5633 5629 5625 5622 5617 5613 5610 5606 5603 5600 5598 5596 5594 5593 5592 5591 5591 5591 5591 5591 5591 5591 5592 5592 5593 5594 5594 5595 5597 5599 5601 5603 5605 5608 5610 5613 5615 5617 5619 5622 5626 5631 5635 5639 5644 5648 5652 5656 5659 5662 5668 5672 5673 5676 5681 5685 5690 5695 5700 5706 5713 5719 5722 5725 5731 5736 5742
5705 5701 5696 5692 5688 5684 5680 5676 5672 5669 5665 5662 5658 5655 5652 5649 5646 5643 5640 5637 5633 5630 5626 5623 5619 5615 5611 5608 5605 5602 5600 5598 5596 5595 5594 5593 5592 5592 5591 5591 5592 5592 5592 5593 5593 5594 5595 5595 5597 5599 5601 5603 5605 5607 5608 5611 5613 5615 5618 5620 5623 5626 5630 5635 5640 5643 5647 5651 5653 5658 5665 5667 5665 5668 5674 5681 5686 5691 5695 5702 5710 5714 5716 5721 5727 5731 5736
5704 5700 5696 5692 5688 5684 5680 5676 5673 5669 5666 5662 5658 5655 5651 5649 5646 5643 5640 5637 5634 5631 5627 5624 5620 5617 5613 5609 5607 5604 5602 5600 5598 5597 5595 5594 5593 5592 5592 5591 5591 5591 5592 5593 5593 5594 5595 5596 5597 5599 5601 5603 5604 5606 5607 5608 5611 5613 5615 5617 5619 5622 5625 5628 5632 5636 5641 5645 5649 5654 5659 5659 5659 5664 5673 5678 5682 5686 5691 5698 5705 5709 5711 5716 5721 5725 5730
5704 5700 5696 5692 5689 5685 5681 5677 5674 5670 5666 5662 5658 5655 5652 5649 5646 5643 5640 5637 5634 5631 5629 5625 5622 5618 5615 5611 5608 5606 5604 5602 5600 5598 5597 5596 5594 5593 5593 5592 5592 5592 5592 5593 5594 5595 5595 5596 5597 5599 5600 5601 5602 5604 5605 5607 5608 5610 5612 5614 5617 5620 5622 5625 5628 5630 5633 5638 5643 5647 5649 5651 5656 5664 5671 5674 5677 5682 5688 5693 5699 5704 5707 5711 5715 5720 5725
5704 5700 5696 5693 5690 5686 5682 5678 5675 5672 5667 5663 5659 5656 5652 5649 5646 5643 5640 5638 5635 5632 5629 5626 5623 5620 5617 5613 5610 5608 5606 5604 5601 5600 5598 5597 5596 5595 5594 5594 5593 5593 5593 5593 5594 5595 5596 5596 5597 5598 5599 5600 5600 5601 5604 5606 5607 5608 5610 5613 5615 5618 5620 5623 5625 5626 5629 5635 5641 5644 5647 5652 5659 5667 5670 5669 5671 5677 5683 5687 5692 5698 5703 5706 5710 5715 5720
5704 5700 5697 5694 5690 5687 5683 5680 5677 5673 5669 5665 5661 5657 5654 5650 5647 5644 5641 5638 5635 5633 5630 5627 5625 5622 5619 5616 5613 5610 5608 5605 5603 5602 5600 5599 5597 5597 5596 5595 5595 5594 5594 5594 5595 5595 5595 5596 5596 5597 5597 5598 5599 5600 5602 5604 5605 5607 5610 5611 5613 5615 5617 5618 5620 5622 5626 5631 5635 5637 5639 5644 5651 5656 5658 5658 5661 5667 5675 5681 5686 5693 5698 5701 5705 5710 5715
5705 5701 5698 5694 5691 5688 5685 5682 5678 5675 5671 5666 5662 5659 5656 5652 5649 5646 5642 5639 5636 5633 5630 5628 5626 5623 5621 5618 5615 5613 5610 5608 5606 5604 5602 5601 5600 5599 5598 5598 5597 5596 5596 5596 5596 5596 5596 5595 5595 5596 5596 5596 5597 5598 5600 5602 5603 5606 5608 5609 5610 5611 5612 5613 5615 5617 5620 5625 5627 5627 5628 5632 5637 5641 5643 5646 5652 5661 5670 5677 5682 5687 5693 5698 5702 5706 5712
5705 5702 5698 5695 5692 5690 5687 5684 5680 5676 5672 5668 5664 5660 5658 5655 5651 5648 5644 5641 5638 5634 5631 5629 5627 5624 5622 5620 5617 5615 5613 5611 5609 5607 5605 5604 5603 5602 5601 5600 5599 5598 5598 5598 5597 5597 5597 5597 5596 5596 5596 5596 5596 5597 5599 5600 5601 5603 5604 5606 5606 5607 5608 5610 5611 5613 5616 5620 5621 5622 5625 5629 5634 5637 5640 5645 5653 5660 5667 5673 5677 5681 5688 5693 5697 5702 5708
5705 5702 5699 5696 5694 5691 5689 5685 5682 5678 5674 5670 5667 5664 5660 5657 5654 5651 5647 5644 5640 5637 5633 5630 5628 5626 5624 5621 5619 5617 5615 5613 5611 5609 5607 5606 5605 5604 5603 5602 5601 5601 5600 5599 5599 5599 5598 5598 5598 5598 5597 5597 5597 5598 5598 5599 5601 5602 5602 5602 5602 5602 5604 5606 5607 5609 5611 5614 5616 5618 5623 5628 5632 5636 5640 5646 5651 5656 5662 5668 5672 5676 5681 5686 5691 5696 5702
5705 5703 5700 5697 5695 5692 5690 5686 5683 5679 5675 5672 5669 5666 5662 5659 5657 5654 5651 5647 5643 5640 5637 5634 5631 5629 5626 5624 5622 5619 5617 5615 5613 5611 5609 5608 5607 5606 5605 5604 5603 5602 5601 5600 5600 5599 5599 5598 5598 5598 5598 5598 5598 5598 5599 5599 5600 5600 5599 5598 5598 5598 5600 5601 5602 5604 5606 5609 5610 5613 5618 5624 5628 5632 5635 5639 5643 5647 5654 5661 5666 5670 5674 5679 5685 5691 5696
5706 5703 5701 5698 5696 5693 5690 5687 5684 5680 5676 5674 5671 5668 5665 5663 5660 5658 5654 5651 5647 5644 5641 5638 5636 5633 5630 5628 5626 5624 5621 5618 5616 5614 5612 5610 5609 5607 5606 5605 5604 5603 5602 5601 5601 5600 5599 5599 5598 5598 5597 5597 5598 5598 5598 5598 5598 5597 5595 5595 5596 5596 5597 5597 5598 5600 5603 5605 5607 5610 5615 5621 5625 5628 5631 5633 5635 5639 5646 5654 5660 5664 5668 5674 5680 5686 5691
5706 5704 5701 5699 5696 5694 5691 5688 5685 5681 5678 5676 5673 5670 5668 5666 5664 5661 5657 5654 5651 5648 5645 5643 5641 5638 5635 5633 5631 5629 5626 5623 5621 5618 5616 5614 5613 5610 5608 5607 5606 5605 5604 5603 5602 5602 5601 5600 5600 5599 5598 5598 5598 5597 5597 5596 5596 5595 5594 5594 5594 5594 5595 5595 5596 5597 5599 5602 5604 5607 5613 5618 5621 5623 5626 5629 5630 5634 5642 5649 5655 5659 5664 5669 5675 5681 5685
5707 5704 5702 5699 5697 5695 5692 5689 5686 5683 5681 5679 5676 5673 5670 5668 5666 5664 5661 5658 5655 5653 5650 5647 5645 5642 5640 5638 5635 5633 5631 5629 5626 5624 5622 5620 5618 5615 5613 5611 5609 5608 5607 5606 5605 5604 5603 5602 5601 5600 5599 5599 5598 5596 5595 5595 5594 5594 5593 5592 5592 5592 5593 5593 5594 5594 5596 5597 5598 5602 5607 5610 5613 5616 5620 5624 5628 5632 5637 5644 5650 5654 5659 5664 5670 5675 5679
5708 5705 5702 5699 5697 5694 5692 5689 5688 5686 5684 5681 5678 5675 5673 5671 5669 5667 5664 5662 5660 5657 5654 5652 5649 5647 5645 5642 5639 5638 5636 5634 5631 5628 5626 5625 5623 5621 5619 5617 5614 5612 5611 5609 5608 5606 5605 5603 5602 5600 5599 5597 5596 5595 5594 5593 5593 5592 5592 5591 5591 5591 5591 5591 5591 5592 5592 5592 5593 5596 5599 5601 5604 5609 5613 5618 5622 5626 5631 5637 5643 5648 5653 5659 5664 5668 5672
5708 5705 5702 5699 5697 5694 5692 5691 5690 5688 5686 5683 5680 5677 5676 5674 5672 5670 5668 5665 5663 5661 5658 5656 5653 5651 5649 5646 5643 5642 5641 5638 5636 5633 5631 5629 5627 5625 5623 5622 5620 5618 5615 5613 5611 5609 5606 5604 5602 5600 5599 5598 5597 5595 5593 5592 5591 5590 5590 5590 5590 5590 5589 5589 5589 5589 5590 5590 5591 5591 5593 5594 5598 5602 5606 5610 5615 5620 5625 5632 5638 5642 5647 5653 5658 5662 5666
5709 5706 5703 5700 5698 5695 5693 5691 5690 5688 5686 5684 5682 5680 5678 5676 5674 5672 5670 5668 5666 5663 5661 5659 5656 5654 5652 5650 5647 5645 5643 5642 5639 5637 5635 5633 5631 5629 5627 5626 5624 5622 5619 5616 5614 5611 5608 5605 5603 5601 5600 5599 5597 5595 5592 5590 5589 5589 5589 5589 5589 5588 5587 5587 5587 5587 5588 5588 5589 5589 5590 5591 5593 5595 5599 5603 5608 5613 5619 5626 5631 5636 5641 5646 5652 5657 5661
5710 5707 5704 5701 5699 5697 5694 5692 5690 5689 5687 5685 5683 5681 5680 5679 5677 5675 5672 5670 5668 5665 5663 5661 5658 5656 5654 5652 5649 5647 5646 5645 5642 5640 5639 5637 5634 5632 5631 5628 5626 5625 5622 5618 5616 5614 5611 5607 5604 5603 5601 5600 5598 5595 5594 5592 5591 5590 5590 5589 5588 5587 5586 5585 5585 5585 5585 5585 5586 5587 5587 5588 5589 5590 5593 5596 5600 5605 5612 5618 5623 5628 5634 5641 5646 5651 5655
5710 5707 5705 5702 5700 5697 5695 5693 5692 5690 5688 5687 5685 5685 5683 5682 5679 5677 5674 5672 5670 5667 5665 5662 5660 5658 5656 5654 5652 5650 5648 5647 5644 5642 5641 5639 5637 5635 5633 5631 5629 5627 5624 5620 5618 5617 5614 5610 5607 5604 5603 5601 5599 5597 5596 5594 5592 5590 5590 5589 5587 5586 5585 5584 5584 5584 5583 5583 5583 5584 5584 5585 5585 5586 5588 5591 5595 5599 5604 5610 5615 5622 5628 5634 5639 5644 5649
5711 5708 5706 5703 5700 5697 5695 5694 5692 5690 5689 5688 5688 5687 5685 5682 5680 5678 5675 5673 5671 5669 5666 5664 5662 5660 5658 5656 5654 5652 5650 5648 5646 5644 5643 5641 5639 5637 5635 5633 5631 5629 5626 5622 5620 5618 5616 5613 5610 5606 5604 5602 5600 5599 5597 5595 5593 5591 5590 5588 5587 5586 5584 5584 5583 5582 5581 5581 5581 5581 5582 5582 5583 5584 5586 5588 5591 5593 5597 5602 5608 5615 5621 5626 5632 5638 5644
5712 5709 5707 5704 5701 5698 5696 5695 5693 5692 5691 5690 5688 5687 5684 5682 5680 5678 5676 5674 5672 5670 5668 5666 5664 5662 5660 5658 5655 5653 5652 5650 5648 5646 5644 5642 5641 5639 5637 5634 5632 5631 5628 5624 5622 5620 5619 5616 5612 5608 5605 5604 5602 5600 5598 5596 5594 5592 5590 5588 5587 5586 5585 5583 5582 5582 5581 5580 5579 5579 5579 5580 5581 5583 5584 5586 5588 5590 5592 5596 5601 5608 5613 5619 5625 5632 5637
5712 5709 5707 5704 5702 5699 5697 5695 5694 5693 5692 5690 5688 5687 5685 5682 5681 5679 5677 5675 5673 5671 5670 5667 5666 5664 5662 5660 5658 5656 5654 5653 5651 5649 5647 5644 5642 5640 5638 5635 5634 5632 5629 5626 5624 5623 5621 5618 5614 5610 5608 5607 5605 5603 5600 5598 5595 5593 5591 5588 5586 5586 5585 5585 5583 5583 5582 5580 5579 5578 5579 5579 5580 5581 5583 5585 5587 5589 5591 5593 5597 5602 5607 5613 5620 5626 5631
5711 5709 5707 5704 5702 5699 5697 5696 5695 5694 5692 5690 5689 5687 5685 5683 5681 5680 5678 5675 5673 5672 5670 5669 5667 5666 5664 5662 5660 5658 5656 5654 5652 5650 5648 5646 5644 5641 5638 5636 5635 5633 5630 5627 5626 5625 5622 5619 5615 5612 5610 5609 5607 5604 5602 5600 5597 5595 5592 5589 5587 5586 5586 5586 5585 5584 5583 5582 5580 5580 5580 5580 5579 5580 5582 5584 5585 5587 5590 5593 5596 5600 5604 5609 5615 5622 5628
5710 5708 5706 5704 5701 5699 5698 5697 5696 5694 5693 5691 5689 5687 5685 5683 5682 5680 5678 5676 5674 5672 5671 5669 5668 5666 5665 5663 5661 5659 5657 5655 5653 5651 5649 5646 5644 5641 5639 5637 5636 5633 5631 5629 5627 5625 5622 5619 5617 5614 5613 5611 5609 5606 5604 5602 5600 5597 5594 5592 5590 5588 5587 5586 5586 5585 5584 5583 5582 5581 5581 5580 5580 5580 5581 5582 5584 5586 5588 5591 5594 5598 5601 5606 5612 5618 5624
5710 5708 5705 5703 5701 5699 5698 5698 5696 5695 5693 5691 5689 5687 5685 5684 5682 5680 5678 5677 5675 5673 5671 5669 5667 5666 5665 5663 5661 5659 5658 5656 5654 5651 5649 5646 5644 5641 5639 5637 5636 5634 5633 5631 5628 5625 5622 5620 5618 5616 5615 5613 5610 5608 5606 5604 5601 5599 5596 5594 5592 5590 5588 5587 5587 5586 5585 5585 5584 5583 5582 5581 5581 5581 5581 5582 5584 5585 5586 5589 5593 5598 5602 5607 5612 5615 5617
5710 5708 5705 5703 5702 5701 5700 5698 5696 5694 5693 5691 5689 5688 5686 5685 5683 5681 5679 5677 5675 5673 5671 5669 5668 5666 5665 5663 5661 5659 5658 5656 5654 5651 5649 5646 5644 5642 5639 5637 5636 5635 5634 5631 5628 5625 5622 5620 5618 5617 5615 5613 5611 5609 5608 5606 5603 5601 5599 5597 5595 5593 5590 5589 5587 5587 5586 5586 5585 5584 5583 5582 5581 5582 5583 5584 5585 5587 5588 5591 5594 5598 5602 5607 5611 5612 5613
5711 5708 5706 5705 5704 5702 5700 5698 5697 5695 5693 5692 5690 5689 5687 5685 5683 5681 5679 5677 5675 5673 5671 5669 5668 5666 5665 5663 5661 5659 5657 5655 5653 5651 5648 5646 5644 5642 5640 5638 5636 5635 5632 5630 5627 5625 5623 5621 5619 5617 5615 5614 5612 5610 5608 5607 5605 5603 5601 5599 5597 5596 5594 5591 5589 5588 5587 5587 5586 5586 5584 5583 5582 5584 5585 5586 5587 5589 5590 5592 5594 5596 5599 5603 5607 5610 5613
5712 5710 5708 5706 5705 5703 5701 5700 5698 5696 5695 5693 5692 5690 5688 5686 5684 5682 5680 5678 5676 5674 5672 5670 5668 5666 5665 5663 5661 5659 5657 5654 5652 5650 5648 5646 5644 5642 5640 5637 5635 5633 5631 5628 5627 5625 5623 5621 5620 5618 5616 5614 5613 5611 5609 5608 5607 5605 5602 5600 5599 5598 5596 5595 5593 5591 5589 5588 5588 5587 5586 5585 5585 5585 5586 5587 5588 5590 5592 5594 5597 5599 5601 5605 5609 5611 5613
5713 5711 5709 5707 5706 5704 5703 5701 5699 5698 5696 5694 5692 5691 5689 5687 5685 5683 5681 5679 5677 5675 5673 5670 5668 5667 5665 5663 5661 5658 5656 5654 5652 5650 5648 5645 5643 5641 5638 5636 5634 5632 5630 5628 5627 5625 5624 5622 5620 5618 5616 5615 5613 5612 5610 5608 5607 5605 5604 5602 5600 5598 5597 5596 5595 5594 5592 5591 5590 5589 5589 5588 5587 5587 5587 5588 5590 5591 5593 5596 5599 5601 5603 5606 5608 5610 5612
5713 5711 5710 5708 5707 5706 5704 5703 5701 5699 5697 5695 5693 5691 5690 5688 5686 5684 5681 5679 5677 5675 5673 5671 5669 5667 5665 5663 5661 5658 5656 5654 5652 5649 5647 5644 5642 5640 5638 5636 5634 5632 5630 5629 5627 5626 5624 5621 5619 5617 5616 5614 5613 5611 5610 5609 5607 5605 5604 5602 5601 5600 5598 5597 5596 5596 5595 5594 5592 5591 5591 5590 5590 5589 5588 5589 5591 5593 5595 5596 5599 5600 5602 5604 5606 5608 5609
5714 5712 5711 5710 5708 5707 5705 5703 5701 5700 5698 5696 5694 5692 5690 5688 5686 5684 5682 5680 5678 5676 5673 5671 5670 5667 5665 5663 5661 5659 5656 5653 5651 5649 5647 5644 5642 5640 5638 5636 5633 5631 5629 5627 5626 5625 5623 5621 5618 5616 5615 5613 5612 5610 5609 5608 5607 5606 5604 5602 5601 5600 5599 5598 5597 5596 5596 5595 5594 5593 5593 5592 5592 5591 5590 5590 5591 5592 5594 5595 5597 5599 5600 5602 5604 5605 5606
5715 5713 5711 5710 5708 5706 5705 5703 5701 5700 5698 5696 5694 5692 5690 5688 5686 5684 5682 5680 5678 5676 5674 5672 5670 5667 5665 5663 5660 5658 5655 5653 5650 5648 5646 5644 5642 5640 5638 5636 5633 5631 5629 5626 5625 5623 5622 5620 5618 5616 5615 5613 5611 5610 5608 5607 5606 5605 5604 5603 5601 5600 5599 5598 5598 5597 5596 5595 5595 5594 5594 5594 5594 5593 5593 5592 5592 5592 5592 5594 5595 5597 5599 5600 5602 5603 5604